This is the latest recevied weather packets stored in our database for station/object W7BTL. If no packets are shown the sender has not sent any weather packets the latest 10 day(s).
| Time | Temp. | Humidity | Pressure | Rain* | Wind** | Luminosity | Snow |
|---|---|---|---|---|---|---|---|
| 1788537173 | 23.89° C | 66% | 1012.8 hPa | 0 mm | - | 336 W/m² | - |
| 1788536871 | 23.33° C | 65% | 1012.7 hPa | 0 mm | - | 315 W/m² | - |
| 1788536566 | 23.33° C | 67% | 1013 hPa | 0 mm | - | 293 W/m² | - |
| 1788536261 | 22.78° C | 69% | 1013 hPa | 0 mm | - | 273 W/m² | - |
| 1788535957 | 22.78° C | 70% | 1013 hPa | 0 mm | - | 253 W/m² | - |
| 1788535654 | 22.78° C | 70% | 1013.1 hPa | 0 mm | - | 232 W/m² | - |
| 1788535354 | 22.78° C | 71% | 1013.1 hPa | 0 mm | - | 208 W/m² | - |
| 1788535048 | 22.22° C | 72% | 1013.2 hPa | 0 mm | - | 195 W/m² | - |
| 1788534748 | 21.67° C | 73% | 1013 hPa | 0 mm | - | 52 W/m² | - |
| 1788534444 | 21.67° C | 73% | 1013.2 hPa | 0 mm | - | 203 W/m² | - |
| 1788534139 | 21.67° C | 74% | 1013.1 hPa | 0 mm | - | 210 W/m² | - |
| 1788533837 | 21.67° C | 75% | 1012.9 hPa | 0 mm | - | 50 W/m² | - |
| 1788533533 | 21.11° C | 76% | 1012.9 hPa | 0 mm | - | 116 W/m² | - |
| 1788533228 | 21.11° C | 76% | 1012.9 hPa | 0 mm | - | 98 W/m² | - |
| 1788532924 | 20.56° C | 78% | 1013 hPa | 0 mm | - | 87 W/m² | - |
| 1788532619 | 20.56° C | 78% | 1012.9 hPa | 0 mm | - | 59 W/m² | - |
| 1788532315 | 20.56° C | 79% | 1012.8 hPa | 0 mm | - | 65 W/m² | - |
| 1788532012 | 20° C | 79% | 1013 hPa | 0 mm | - | 67 W/m² | - |
| 1788531707 | 20° C | 81% | 1012.8 hPa | 0 mm | - | 60 W/m² | - |
| 1788531402 | 19.44° C | 83% | 1012.6 hPa | 0 mm | - | 51 W/m² | - |
| 1788531098 | 18.33° C | 87% | 1012.7 hPa | 0 mm | - | 44 W/m² | - |
| 1788530793 | 17.78° C | 92% | 1012.5 hPa | 0 mm | - | 38 W/m² | - |
| 1788530493 | 16.67° C | 95% | 1012.6 hPa | 0 mm | - | 32 W/m² | - |
| 1788530192 | 16.67° C | 94% | 1012.5 hPa | 0 mm | - | 25 W/m² | - |
| 1788529889 | 16.67° C | 94% | 1012.5 hPa | 0 mm | - | 17 W/m² | - |
* Rain latest hour (hover to see other rain measurements)
** Current wind speed in m/s (hover to see current wind gust speed)